Location: River House Observatory
(37.8577°N, 76.3548°W)
Time: 21:31:44
(UTC-04:00)

Daily predictions for brighter satellites

Satellite Brightness Start Highest point End
(mag) Time Altitude Azimuth Time Altitude Azimuth Time Altitude Azimuth
Cosmos 1818 4.0 19:42:11 10° NNW 19:47:25 44° NE 19:52:34 10° SE
Cosmos 1758 4.0 19:45:41 10° SSE 19:49:13 32° E 19:52:47 10° NNE
Lacrosse 5 3.3 19:48:13 10° WSW 19:52:56 39° NW 19:57:41 10° NNE
Cosmos 1953 2.9 19:51:54 10° SSE 19:55:37 35° E 19:59:19 10° NNE
Cosmos 1674 4.2 19:55:08 10° NNE 19:57:52 19° ENE 20:00:36 10° ESE
Cosmos 1766 3.5 19:54:08 10° SSW 19:58:00 73° W 20:01:53 10° N
Resurs 1-3 4.3 19:55:35 10° SE 19:59:30 33° ENE 20:03:27 10° N
Meteor 1-4 Rocket 2.5 20:04:17 10° S 20:07:40 53° E 20:11:04 10° NNE
Helios 1B rocket 3.5 20:05:47 10° NE 20:09:04 23° E 20:12:20 10° SSE
In-Cosmos 22 4.0 20:06:20 10° N 20:11:39 84° E 20:16:56 10° S
Spot 2 Rocket 3.6 20:08:05 10° SSE 20:13:03 55° ENE 20:18:03 10° N
Cosmos 2098 Rocket 4.5 20:05:59 10° S 20:13:07 63° E 20:20:36 10° NNE
Timation 2 Rocket 4.4 20:10:04 10° N 20:16:01 43° ENE 20:21:17 12° SE
Lacrosse 5 rocket 2.7 20:13:08 10° NNW 20:16:18 23° NE 20:18:25 15° E
SWAS 4.4 20:14:42 10° S 20:18:55 59° ESE 20:23:09 10° NNE
Cosmos 1544 3.2 20:16:47 10° S 20:20:25 77° W 20:24:06 10° N
Cosmos 1076 Rocket 3.5 20:16:49 10° N 20:21:01 58° E 20:25:11 10° SSE
Cosmos 1867 3.7 20:16:45 10° SSW 20:22:12 81° WNW 20:27:42 10° NNE
Cosmos 2173 Rocket 4.4 20:17:26 10° SSE 20:23:03 38° E 20:28:45 10° NNE
FENGYUN 3A 3.9 20:17:53 10° S 20:23:17 77° WSW 20:28:41 10° NNW
H-2A R/B (2) 3.2 20:20:46 10° SW 20:23:19 23° S 20:26:56 14° SE
CZ-2D R/B 3.4 20:19:34 10° SSE 20:23:19 51° ENE 20:27:07 10° N
Okean 3 Rocket 3.7 20:20:52 10° N 20:25:16 76° W 20:29:41 10° S
Cosmos 1805 3.7 20:22:58 10° SSW 20:26:50 65° W 20:30:43 10° N
Helios 1A 3.5 20:26:17 15° SE 20:29:15 38° ENE 20:33:08 10° N
ALOS 2.9 20:24:43 10° S 20:29:19 58° W 20:33:56 10° NNW
Cosmos 1833 Rocket 2.8 20:24:22 10° NNW 20:29:56 59° ENE 20:34:47 14° SE
Envisat 3.8 20:28:31 18° ESE 20:31:21 30° ENE 20:35:45 10° N
Meteor 1-21 Rocket 4.3 20:27:06 10° N 20:32:58 74° E 20:38:52 10° SSE
Abrixas 2.9 20:31:43 10° WNW 20:34:28 50° SW 20:35:43 26° SSE
Cosmos 2278 Rocket 4.2 20:33:10 10° WSW 20:38:11 31° WNW 20:43:13 10° N
Tiangong 1 3.8 20:37:35 10° SW 20:38:22 11° SW 20:39:09 10° SSW
ATLAS 5 CENTAUR R/B 1.8 20:35:58 10° SW 20:40:37 82° WNW 20:45:39 10° NNE
SeaSat 1 2.7 20:36:43 10° SSE 20:41:37 68° WSW 20:46:33 10° NNW
Cosmos 1125 Rocket 4.2 20:36:55 10° SSW 20:42:01 57° WNW 20:47:10 10° N
Cosmos 1733 3.1 20:39:29 10° S 20:43:17 63° E 20:47:08 10° NNE
Spot 1 4.3 20:39:57 15° SSE 20:43:44 61° ENE 20:48:36 10° N
ERS-1 Rocket 4.2 20:43:15 21° ENE 20:43:55 22° ENE 20:47:41 10° NNE
Cosmos 1470 2.6 20:40:56 10° S 20:44:54 70° E 20:48:51 10° NNE
Geosat 3.9 20:40:49 10° NNE 20:45:51 74° ESE 20:50:52 10° SSW
Cosmos 1048 Rocket 4.0 20:41:30 10° NNW 20:46:39 83° WSW 20:51:40 11° SSE
GPS 2-05 Rocket1 3.0 20:43:50 10° WSW 20:47:20 60° S 20:48:14 43° ESE
Cosmos-2242 2.8 20:43:19 10° S 20:47:33 80° E 20:51:50 10° N
Cosmos 1766 Rocket 3.5 20:43:14 10° N 20:47:45 85° E 20:52:13 10° S
OAO 2 Rocket 4.2 20:45:19 10° SW 20:49:58 34° SSE 20:51:18 29° SE
GP-B 3.0 20:46:28 10° S 20:50:54 84° E 20:55:21 10° N
Cosmos 1356 Rocket 4.5 20:51:18 10° NNE 20:54:14 27° ENE 20:54:14 27° ENE
Cosmos 2016 Rocket 4.1 20:49:11 10° SSE 20:55:09 50° E 21:01:04 10° NNE
CZ-4B DEB 4.5 20:54:49 46° SE 20:55:41 65° ENE 20:59:14 10° N
USA 186 2.4 20:58:06 34° NW 20:58:06 34° NW 20:59:34 10° NNW
H-2A R/B 4.3 20:54:33 10° SSW 20:58:09 36° W 21:01:48 10° NNW
Resurs 01 Rocket 2.9 20:56:07 10° S 21:00:16 40° W 21:04:27 10° NNW
CZ-4B DEB 2.9 21:01:09 55° NNE 21:01:09 55° NNE 21:03:48 10° N
Cosmos 1340 Rocket 2.6 20:57:14 10° N 21:01:16 76° E 21:02:27 43° SSE
Cosmos 1725 Rocket 4.3 21:02:51 32° SE 21:04:50 41° E 21:10:34 10° NNE
Cosmos 2082 Rocket 2.8 21:04:34 10° NNW 21:10:08 57° WSW 21:14:42 15° S
ISS -2.0 21:08:29 10° W 21:11:23 29° NNW 21:12:44 21° N
Cosmos 2100 Rocket 4.2 21:07:41 10° SSW 21:14:00 74° W 21:20:23 10° N
Meteor 1-29 3.4 21:11:07 10° N 21:14:34 63° WNW 21:16:41 22° SSW
SL-08 R/B 4.5 21:11:52 12° S 21:17:39 65° E 21:24:00 10° NNE
Cosmos 1743 Rocket 3.4 21:14:26 10° N 21:18:54 87° E 21:19:40 61° SSE
Cosmos 1500 Rocket 3.6 21:15:36 10° N 21:19:25 57° NE 21:19:25 57° NE
Meteor 1-16 Rocket 4.2 21:14:21 10° S 21:20:10 75° E 21:26:06 10° NNE
Meteor 1-11 4.2 21:15:54 10° N 21:21:23 54° ENE 21:21:49 52° E
YAOGAN 6 4.4 21:24:19 23° NNE 21:24:19 23° NNE 21:26:00 10° N
CZ-3B DEB 4.4 21:16:16 10° W 21:22:30 21° NW 21:26:18 10° NNE
SL-14 R/B 4.1 21:20:11 10° N 21:22:48 39° NNE 21:22:48 39° NNE
Cosmos 1271 Rocket 4.4 21:20:38 10° SW 21:24:18 34° WNW 21:28:01 10° N
Cosmos 2251 Rocket 3.4 21:22:58 10° NNW 21:28:18 69° ENE 21:28:42 66° E
Tsikada Rocket 4.1 21:22:36 10° N 21:28:41 53° E 21:29:09 52° E
Cosmos 1328 4.3 21:27:15 10° N 21:30:24 55° NNW 21:30:24 55° NNW
USA 215 3.1 21:29:05 10° NE 21:35:38 79° SE 21:42:10 10° SW
Cosmos 1802 Rocket 4.4 21:31:49 10° SSW 21:37:50 60° W 21:43:56 10° N
SPOT 5 4.1 21:42:55 34° NE 21:42:55 34° NE 21:46:28 10° N
Meteor 2-1 Rocket 4.4 21:43:32 57° NE 21:43:32 57° NE 21:48:14 10° NNE
Cosmos 1939 Rocket 3.6 21:42:56 52° W 21:42:56 52° W 21:46:50 10° NNW
Cosmos 2151 4.0 21:39:19 10° N 21:42:00 38° N 21:42:00 38° N
Lacrosse 5 rocket 3.2 21:52:04 10° WNW 21:54:09 26° W 21:54:09 26° W
Cosmos 1816 Rocket 4.4 21:51:38 10° N 21:57:23 72° NE 21:57:23 72° NE
Cosmos 2369 Rocket 3.6 22:01:47 26° NNE 22:01:47 26° NNE 22:04:07 10° NNE
Cosmos 494 Rocket 4.4 21:54:17 10° NNW 21:59:02 58° W 21:59:02 58° W
USA 267 4.3 22:06:11 30° NE 22:06:55 31° NNE 22:12:29 10° NNW
Cosmos 2233 Rocket 4.3 22:10:13 54° NNE 22:10:13 54° NNE 22:14:52 10° N
ERS-1 Rocket 4.2 22:23:15 37° WNW 22:23:15 37° WNW 22:27:08 10° NNW
H-2A R/B 3.9 22:31:01 25° N 22:31:01 25° N 22:33:12 10° N
CZ-3 Stage 3 3.9 22:23:10 10° W 22:38:06 38° SW 22:38:06 38° SW
